Regional Weather Roundup
Issued by NWS Cleveland, OH

Home | Current Version | Previous Version | Text Only | Print | Product List | Glossary On
Versions: 1 2 3 4 5 6 7 8 9 10 11 12 13 14 15 16 17 18 19 20 21 22 23 24 25 26 27 28 29 30 31 32 33 34 35 36 37 38 39 40 41 42 43 44 45 46 47 48 49 50
000
ASUS41 KCLE 290712
RWRCLE
OHIO REGIONAL WEATHER ROUNDUP
NATIONAL WEATHER SERVICE WILMINGTON, OH
300 AM EDT THU JUN 29 2017

NOTE: "FAIR" INDICATES FEW OR NO CLOUDS BELOW 12,000 FEET WITH NO
SIGNIFICANT WEATHER AND/OR OBSTRUCTIONS TO VISIBILITY.

OHZ001>008-015>018-024>027-034-035-043-044-290800-
   NORTHWEST OHIO

CITY           SKY/WX    TMP DP  RH WIND       PRES   REMARKS
DEFIANCE       FAIR      69  54  58 S12       29.92F
FINDLAY        FAIR      69  53  56 S14       29.94F
TOLEDO EXPRESS MOCLDY    69  55  60 S8        29.91F
TOLEDO EXEC    FAIR      69  55  60 S9        29.93F
LIMA           FAIR      67  55  65 S12       29.96F
$$

OHZ009>014-019>023-028>033-038-089-290800-
   NORTHEAST OHIO

CITY           SKY/WX    TMP DP  RH WIND       PRES   REMARKS
CLE-HOPKINS    MOCLDY    71  53  52 S12       30.00F
CLE-LAKEFRONT  FAIR      70  52  52 S9        29.98S
CUY CO. ARPT   NOT AVBL
LORAIN-ELYRIA  FAIR      67  49  52 SW9       29.99F
ASHTABULA      CLOUDY    65  54  67 S7        30.03F
AKRON-CANTON   FAIR      64  52  64 S10       30.03S
WOOSTER        FAIR      64  53  67 S8        30.02F
MANSFIELD      FAIR      64  53  67 S10       30.01F
YOUNGSTOWN     CLOUDY    64  52  64 S7        30.04F
$$

OHZ042-051>053-060>062-070>072-077>081-290800-
  SOUTHWEST OHIO

CITY           SKY/WX    TMP DP  RH WIND       PRES   REMARKS
CINC-COVINGTON CLOUDY    63  57  81 S8        30.02F
CINC-LUNKEN    FAIR      63  59  87 CALM      30.03F
HAMILTON       FAIR      62  57  83 CALM      30.02S
DAYTON         FAIR      68  54  60 S14       30.01F
WRIGHT-PAT AFB FAIR      64  56  75 S7        30.01S
DAYTON GENERAL FAIR      64  56  75 S8        30.01F
WILMINGTON     FAIR      62  58  86 S8        30.03F
$$

OHZ036-037-039>041-045>050-054>059-063>069-073>076-082>088-290800-
  CENTRAL AND SOUTHEAST OHIO

CITY           SKY/WX    TMP DP  RH WIND       PRES   REMARKS
COLUMBUS       MOCLDY    65  55  70 S6        30.02F
OSU AIRPORT    FAIR      65  56  72 S7        30.02S
BOLTON FIELD   FAIR      63  56  78 S8        30.03S
RICKENBACK AFB FAIR      62  55  77 S8        30.02F
NEWARK         FAIR      60  53  77 CALM      30.02F
MARION         FAIR      64  54  69 S8        30.01S
LANCASTER      FAIR      59  54  83 SE3       30.03F
ZANESVILLE     FAIR      59  53  80 S6        30.04F
NEW PHILLY     FAIR      60  55  83 SE3       30.03F
$$




USA.gov is the U.S. government's official web portal to all federal, state and local government web resources and services.